Location: Gebenbach
(49.5378°N, 11.8735°E)
Time: 03:16:51
(UTC+00:00)

SL-08 RB Rocket - Pass Details

Date: 29 October 2020
Orbit: 648 x 683 km, 97.8° (Epoch: 27 November)

Event Time Altitude Azimuth Distance (km) Brightness Sun altitude
Exits shadow 18:26:09 43° 7° (N) 916 4.3 -25.0°
Drops below altitude 10° 18:29:19 10° 351° (N) 2,077 6.4 -25.5°
Sets 18:31:34 0° 349° (N) 2,998 7.3 -25.9°
